Location: Cisewo
(53.3833°N, 14.9000°E)
Time: 10:49:14
(UTC+00:00)

Cosmos 1603 - Pass Details

Date: 18 April 2021
Orbit: 830 x 860 km, 71.0° (Epoch: 14 May)

Event Time Altitude Azimuth Distance (km) Brightness Sun altitude
Rises 21:41:06 0° 327° (NNW) 3,444 8.2 -23.3°
Reaches altitude 10° 21:43:34 10° 328° (NNW) 2,501 7.2 -23.5°
Maximum altitude 21:49:20 89° 49° (NE) 860 3.6 -23.7°
Enters shadow 21:50:33 58° 148° (SSE) 989 3.7 -23.8°
